Regional Weather Roundup
Issued by NWS

Home | Current Version | Previous Version | Text Only | Print | Product List | Glossary Off
Versions: 1 2 3 4 5 6 7 8 9 10 11 12 13 14 15 16 17 18 19 20 21 22 23 24 25 26 27 28 29 30 31 32 33 34 35 36 37 38 39 40 41 42 43 44 45 46 47 48 49 50

000
ASUS43 KDMX 261408
RWRIA

WEATHER ROUNDUP FOR IOWA
NATIONAL WEATHER SERVICE DES MOINES IA
900 AM CDT TUE JUL 26 2016

NOTE: "FAIR" INDICATES FEW OR NO CLOUDS BELOW 12,000 FEET WITH NO
SIGNIFICANT WEATHER AND/OR OBSTRUCTIONS TO VISIBILITY.

* - THESE STATIONS ARE NOT NWS STATIONS...THUS NOT UNDER NWS
QUALITY CONTROL.  THEY ALSO DO NOT REPORT WEATHER SUCH
AS PRECIPITATION OR FOG.

IAZ001>003-012>014-020>022-031>034-043>046-261500-
   NORTHWEST IOWA

CITY           SKY/WX    TMP DP  RH WIND       PRES   REMARKS
CARROLL *      SUNNY     75  70  83 CALM      30.10S
CHEROKEE *     SUNNY     73  68  84 S5        30.09S
DENISON *      SUNNY     73  68  83 CALM      30.08S
LE MARS *      SUNNY     75  68  78 SW7       30.08S
SHELDON *      SUNNY     75  68  78 SW7       30.07S
SIOUX CITY     SUNNY     74  67  78 SE5       30.07S
SPENCER        SUNNY     74  66  76 SW6       30.08F
STORM LAKE *   SUNNY     75  66  73 S6        30.10S
$$

IAZ055>058-069>071-079>083-090>094-261500-
   SOUTHWEST IOWA

CITY           SKY/WX    TMP DP  RH WIND       PRES   REMARKS
ATLANTIC *     SUNNY     72  68  88 CALM      30.10S
CLARINDA *       N/A     73  68  83 MISG      30.11F
COUNCIL BLFS *   N/A     73  66  78 SE6         N/A
CRESTON *      SUNNY     77  66  69 CALM      30.12S
HARLAN  *      SUNNY     72  68  88 CALM      30.13S
LAMONI         SUNNY     74  67  78 CALM      30.10S
RED OAK *      SUNNY     73  68  83 CALM      30.10S
SHENANDOAH *   SUNNY     73  72  94 CALM      30.10S
$$

IAZ047>049-059>061-072>074-084-261500-
   CENTRAL IOWA

CITY           SKY/WX    TMP DP  RH WIND       PRES   REMARKS
AMES           SUNNY     77  69  76 CALM      30.09S
ANKENY *         N/A    N/A N/A N/A MISG        N/A
BOONE *        SUNNY     75  68  78 VRB3      30.10S
CHARITON *       N/A    N/A N/A N/A MISG        N/A
DES MOINES     MOSUNNY   78  66  66 CALM      30.09S HX  80
GRINNELL*      SUNNY     75  67  75 E3        30.10S
KNOXVILLE *    SUNNY     75  66  73 CALM      30.08S
MARSHALLTOWN   SUNNY     74  66  76 N3        30.10R
NEWTON *       SUNNY     77  66  69 CALM      30.09R
PELLA *        SUNNY     77  66  68 CALM      30.10S
PERRY *          N/A     74  70  87 CALM      30.10S
$$

IAZ004>006-015-016-023>025-035-036-261500-
   NORTH CENTRAL IOWA

CITY           SKY/WX    TMP DP  RH WIND       PRES   REMARKS
ALGONA *       SUNNY     75  68  78 S6        30.10S
ESTHERVILLE    SUNNY     74  67  78 SW6       30.08F
FORT DODGE *   SUNNY     75  68  78 SW5       30.11S
MASON CITY     SUNNY     76  66  71 S5        30.12S
FOREST CITY *    N/A     73  66  78 S3        30.11S
IOWA FALLS *     N/A     77  68  72 CALM      30.12R
$$

IAZ007>011-017>019-026>030-037>042-050>054-066-261500-
   NORTHEAST IOWA

CITY           SKY/WX    TMP DP  RH WIND       PRES   REMARKS
CEDAR RAPIDS   SUNNY     76  70  82 SE3       30.08S
CHARLES CITY * SUNNY     73  70  88 CALM      30.11S
CLINTON *      SUNNY     77  69  76 E6        30.07F
DECORAH *      SUNNY     73  68  83 CALM      30.09S
DUBUQUE        SUNNY     74  65  73 NE6       30.10S
MONTICELLO *   SUNNY     73  66  78 CALM      30.08F
OELWEIN *      SUNNY     75  68  78 CALM      30.10F
WATERLOO       SUNNY     74  67  78 CALM      30.09R
$$

IAZ064-065-067-068-078-261500-
   EAST CENTRAL IOWA

CITY           SKY/WX    TMP DP  RH WIND       PRES   REMARKS
DAVENPORT      SUNNY     76  67  73 E8        30.08S
IOWA CITY      SUNNY     78  65  63 NE5       30.09S HX  80
MT. PLEASANT * SUNNY     78  69  75 E3        30.08S HX  80
MUSCATINE *    SUNNY     75  68  78 CALM      30.08S
QUAD CITIES    SUNNY     78  66  66 E7        30.06F HX  80
$$

IAZ062-063-075>077-085>089-095>099-261500-
   SOUTHEAST IOWA

CITY           SKY/WX    TMP DP  RH WIND       PRES   REMARKS
BURLINGTON     SUNNY     77  69  76 NE5       30.07S
FAIRFIELD *    SUNNY     75  66  73 CALM      30.08S HAZE
KEOKUK *       SUNNY     77  68  73 NE5       30.07S
CENTERVILLE *    N/A     75  68  78 CALM      30.11S
OTTUMWA        SUNNY     75  66  73 NE6       30.07S
WASHINGTON *   SUNNY     75  68  78 NE5       30.09S
$$

ABBREVIATIONS USED IN REMARKS
   TC - TEMPERATURES IN CELSIUS
  WCI - WIND CHILL INDEX
   HX - HEAT INDEX
  VSB - VISIBILITY
$$





USA.gov is the U.S. government's official web portal to all federal, state and local government web resources and services.